This demonstration page uses our WeatherBlox Daily Observations layout. Learn more.

Left ArrowRight Arrow

39.51506, -84.39828

Hourly Observations for April 5, 2018

Temp ( °F °C ) Dew Point ( °F °C ) Humidity (%) Winds ( mph kmh ) Pressure ( in mb ) Visibility ( mi km ) Precip ( " mm )
12:15 am 00:15 Cloudy 33 0.6 20 -6.9 58 58 W 8 13 30.30 1026 10 16 0.00 0.00
12:35 am 00:35 Cloudy 33 0.3 20 -6.9 59 59 W 8 13 30.30 1026 10 16 0.00 0.00
12:55 am 00:55 Mostly Cloudy 32 -0.1 20 -6.8 61 61 WSW 7 11 30.30 1026 10 16 0.00 0.00
1:15 am 01:15 Partly Cloudy 31 -0.4 19 -7.1 61 61 W 9 15 30.30 1026 10 16 0.00 0.00
1:30 am 01:30 Clear 30 -0.9 19 -7.2 63 63 WSW 5 7 30.30 1026 10 16 0.00 0.00
1:55 am 01:55 Clear 29 -1.7 20 -6.9 68 68 WSW 5 7 30.30 1026 10 16 0.00 0.00
2:15 am 02:15 Clear 30 -1.3 20 -6.8 67 67 W 5 7 30.30 1026 10 16 0.00 0.00
2:35 am 02:35 Clear 29 -1.6 20 -6.4 70 70 W 5 7 30.30 1026 10 16 0.00 0.00
2:55 am 02:55 Clear 29 -1.4 21 -6.3 70 70 Calm 30.30 1026 10 16 0.00 0.00
3:15 am 03:15 Clear 30 -1.2 20 -6.5 68 68 Calm 30.30 1026 10 16 0.00 0.00
3:35 am 03:35 Clear 29 -1.7 21 -6.2 72 72 Calm 30.30 1026 10 16 0.00 0.00
3:55 am 03:55 Clear 29 -1.6 21 -5.9 73 73 WSW 5 7 30.30 1026 10 16 0.00 0.00
4:15 am 04:15 Clear 29 -1.8 21 -6 73 73 WSW 3 6 30.30 1026 10 16 0.00 0.00
4:35 am 04:35 Clear 29 -1.7 22 -5.4 76 76 W 3 6 30.30 1026 10 16 0.00 0.00
4:55 am 04:55 Clear 28 -2 22 -5.5 77 77 Calm 30.30 1026 10 16 0.00 0.00
5:15 am 05:15 Clear 29 -1.9 22 -5.6 76 76 WSW 3 6 30.30 1026 10 16 0.00 0.00
5:35 am 05:35 Clear 28 -2.4 23 -5.1 82 82 Calm 30.30 1026 10 16 0.00 0.00
5:55 am 05:55 Clear 27 -2.7 24 -4.6 87 87 Calm 30.30 1026 10 16 0.00 0.00
6:15 am 06:15 Clear 27 -2.9 23 -5.2 84 84 WSW 3 6 30.30 1026 10 16 0.00 0.00
6:35 am 06:35 Clear 25 -3.7 21 -6 84 84 Calm 30.30 1026 10 16 0.00 0.00
6:55 am 06:55 Clear 26 -3.6 22 -5.5 87 87 W 3 6 30.30 1026 10 16 0.00 0.00
7:15 am 07:15 Clear 27 -2.6 22 -5.3 82 82 WSW 3 6 30.30 1026 10 16 0.00 0.00
7:35 am 07:35 Sunny 28 -2.4 23 -5 83 83 WSW 3 6 30.30 1026 10 16 0.00 0.00
7:55 am 07:55 Sunny 28 -2.3 24 -4.6 84 84 SW 3 6 30.30 1026 10 16 0.00 0.00
8:15 am 08:15 Sunny 29 -1.7 25 -4.1 84 84 SW 3 6 30.33 1027 10 16 0.00 0.00
8:35 am 08:35 Sunny 31 -0.8 25 -3.8 80 80 SW 6 9 30.33 1027 10 16 0.00 0.00
8:55 am 08:55 Sunny 32 0.1 26 -3.5 77 77 SW 6 9 30.33 1027 10 16 0.00 0.00
9:15 am 09:15 Sunny 33 0.8 26 -3.6 73 73 SW 7 11 30.33 1027 10 16 0.00 0.00
9:35 am 09:35 Sunny 34 1.3 25 -4 68 68 WSW 8 13 30.33 1027 10 16 0.00 0.00
9:55 am 09:55 Sunny 35 1.9 24 -4.7 62 62 WSW 8 13 30.33 1027 10 16 0.00 0.00
10:15 am 10:15 Sunny 36 2.3 22 -5.7 56 56 WSW 8 13 30.33 1027 10 16 0.00 0.00
10:35 am 10:35 Sunny 37 3 21 -6.3 51 51 WSW 8 13 30.33 1027 10 16 0.00 0.00
10:55 am 10:55 Sunny 38 3.6 22 -5.8 51 51 W 6 9 30.33 1027 10 16 0.00 0.00
11:15 am 11:15 Sunny 39 3.8 18 -7.6 44 44 WNW 7 11 30.33 1027 10 16 0.00 0.00
11:35 am 11:35 Sunny 40 4.3 20 -6.7 45 45 SW 9 15 30.33 1027 10 16 0.00 0.00
11:55 am 11:55 Mostly Cloudy 40 4.7 20 -6.9 43 43 W 9 15 30.33 1027 10 16 0.00 0.00
12:15 pm 12:15 Mostly Cloudy 40 4.6 19 -7.4 42 42 SW 6 9 30.33 1027 10 16 0.00 0.00
12:35 pm 12:35 Partly Cloudy 41 5.1 19 -7.2 41 41 WNW 6 9 30.33 1027 10 16 0.00 0.00
12:55 pm 12:55 Sunny 42 5.6 20 -6.5 42 42 WSW 12 19 30.30 1026 10 16 0.00 0.00
1:15 pm 13:15 Partly Cloudy 43 6.1 19 -7 39 39 WSW 10 17 30.27 1025 10 16 0.00 0.00
1:35 pm 13:35 Partly Cloudy 43 6 19 -7 39 39 Calm 30.24 1024 10 16 0.00 0.00
1:55 pm 13:55 Partly Cloudy 44 6.6 20 -6.5 39 39 SSW 5 7 30.24 1024 10 16 0.00 0.00
2:15 pm 14:15 Cloudy 45 7.3 21 -6.3 38 38 W 7 11 30.24 1024 10 16 0.00 0.00
2:35 pm 14:35 Cloudy 46 7.5 22 -5.8 39 39 SSW 12 19 30.24 1024 10 16 0.00 0.00
2:55 pm 14:55 Cloudy 46 7.7 21 -6.3 37 37 S 5 7 30.21 1023 10 16 0.00 0.00
3:15 pm 15:15 Cloudy 47 8.2 23 -4.9 39 39 SSW 10 17 30.21 1023 10 16 0.00 0.00
3:35 pm 15:35 Cloudy 46 7.9 22 -5.6 38 38 SSW 8 13 30.18 1022 10 16 0.00 0.00
3:55 pm 15:55 Cloudy 47 8.1 22 -5.6 38 38 SSW 7 11 30.18 1022 10 16 0.00 0.00
4:15 pm 16:15 Cloudy 46 7.9 21 -6.3 36 36 WSW 6 9 30.18 1022 10 16 0.00 0.00
4:35 pm 16:35 Cloudy 47 8.1 20 -6.8 34 34 S 6 9 30.15 1021 10 16 0.00 0.00
4:55 pm 16:55 Cloudy 47 8.1 20 -6.8 34 34 SSW 6 9 30.15 1021 10 16 0.00 0.00
5:15 pm 17:15 Cloudy 47 8.4 21 -6.3 35 35 SW 7 11 30.15 1021 10 16 0.00 0.00
5:35 pm 17:35 Mostly Cloudy 47 8.4 20 -6.7 34 34 S 6 9 30.12 1020 10 16 0.00 0.00
5:55 pm 17:55 Sunny 48 8.9 21 -6.3 34 34 WSW 3 6 30.12 1020 10 16 0.00 0.00
6:15 pm 18:15 Mostly Cloudy 49 9.2 21 -5.9 34 34 SW 6 9 30.12 1020 10 16 0.00 0.00
6:35 pm 18:35 Sunny 49 9.2 22 -5.7 35 35 SW 6 9 30.12 1020 10 16 0.00 0.00
6:55 pm 18:55 Sunny 49 9.2 22 -5.5 35 35 SW 6 9 30.09 1019 10 16 0.00 0.00
7:15 pm 19:15 Mostly Cloudy 48 8.7 22 -5.7 36 36 Calm 30.09 1019 10 16 0.00 0.00
7:35 pm 19:35 Partly Cloudy 47 8.1 23 -4.9 40 40 Calm 30.09 1019 10 16 0.00 0.00
7:55 pm 19:55 Partly Cloudy 46 7.8 24 -4.6 41 41 Calm 30.09 1019 10 16 0.00 0.00
8:15 pm 20:15 Mostly Cloudy 45 7.3 25 -4 45 45 Calm 30.06 1018 10 16 0.00 0.00
8:35 pm 20:35 Partly Cloudy 42 5.5 31 -0.3 67 67 Calm 30.06 1018 10 16 0.00 0.00
8:55 pm 20:55 Partly Cloudy 40 4.3 32 -0.2 73 73 Calm 30.06 1018 10 16 0.00 0.00
9:15 pm 21:15 Partly Cloudy 40 4.6 32 0.1 73 73 Calm 30.06 1018 10 16 0.00 0.00
9:35 pm 21:35 Partly Cloudy 39 4.1 33 0.5 78 78 Calm 30.06 1018 10 16 0.00 0.00
9:55 pm 21:55 Mostly Cloudy 40 4.7 33 0.6 75 75 Calm 30.06 1018 10 16 0.00 0.00
10:15 pm 22:15 Partly Cloudy 40 4.5 33 0.4 75 75 NNW 3 6 30.03 1017 10 16 0.00 0.00
10:35 pm 22:35 Partly Cloudy 39 4 32 0 75 75 N 3 6 30.09 1019 10 16 0.00 0.00
10:55 pm 22:55 Cloudy 39 4 33 0.4 78 78 Calm 30.09 1019 10 16 0.00 0.00
11:15 pm 23:15 Cloudy 40 4.4 34 1 79 79 N 3 6 30.03 1017 10 16 0.00 0.00
11:35 pm 23:35 Cloudy 40 4.5 33 0.5 76 76 Calm 30.03 1017 10 16 0.00 0.00
11:55 pm 23:55 Cloudy 40 4.3 33 0.3 75 75 N 5 7 30.03 1017 10 16 0.00 0.00

Powered by AerisWeather